"2010-06-26 00:00:00",233740,6.638,191.6,5.09,0.724,24.57,111.3006,28.24,29.09,12.54,0,111.3,13.08,29.09,153.6
"2010-06-26 00:00:30",233741,7.967,179.6,5.037,1.259,24.48,111.3107,28.26,29.12,12.54,0,111.3,13.08,29.11,141.6
"2010-06-26 00:01:00",233742,8.98,187.3,3.232,0.712,24.4,111.3112,28.27,29.13,12.66,0,111.3,13.08,29.12,149.3
"2010-06-26 00:01:30",233743,7.705,185.7,4.981,0.668,24.53,111.3119,28.27,29.13,12.58,0,111.3,13.08,29.12,147.7
"2010-06-26 00:02:00",233744,8.51,187.1,3.402,0.33,24.63,111.3169,28.28,29.14,12.49,0,111.3,13.08,29.13,149.1
"2010-06-26 00:02:30",233745,9.12,187,4.422,0.758,24.33,111.3214,28.29,29.15,12.66,0,111.3,13.08,29.14,149.0
"2010-06-26 00:03:00",233746,7.38,193.9,8.57,0.345,24.33,111.3091,28.26,29.14,12.67,0,111.3,13.08,29.11,155.9
"2010-06-26 00:03:30",233747,8.31,196.8,4.988,0.843,24.31,111.3038,28.25,29.14,12.68,0,111.3,13.09,29.10,158.8
"2010-06-26 00:04:00",233748,9.65,189.5,3.555,0.705,24.36,111.2979,28.23,29.13,12.66,0,111.3,13.09,29.08,151.5
"2010-06-26 00:04:30",233749,9.83,188,2.966,0.436,24.52,111.2847,28.2,29.1,12.45,0,111.3,13.09,29.05,150.0
"2010-06-26 00:05:00",233750,10.69,190.1,3.396,0.421,24.42,111.282,28.19,29.1,12.57,0,111.3,13.09,29.04,152.1
"2010-06-26 00:05:30",233751,11.45,187.8,2.311,0.55,24.39,111.2738,28.17,29.08,12.73,0,111.3,13.09,29.02,149.8
"2010-06-26 00:06:00",233752,10.27,190.7,1.209,0.177,24.57,111.2708,28.16,29.08,12.4,0,111.3,13.09,29.01,152.7
"2010-06-26 00:06:30",233753,10.8,192.4,1.532,0.354,24.46,111.2699,28.16,29.06,12.51,0,111.3,13.09,29.01,154.4
"2010-06-26 00:07:00",233754,11.88,191,1.624,0.557,24.41,111.2547,28.12,29.05,12.71,0,111.3,13.09,28.97,153.0
"2010-06-26 00:07:30",233755,12.49,192,1.613,0.245,24.37,111.2481,28.1,29.04,12.86,0,111.3,13.09,28.95,154.0
"2010-06-26 00:08:00",233756,12.28,193.6,2.811,0.321,24.23,111.2422,28.09,29.03,13.1,0,111.3,13.09,28.94,155.6
"2010-06-26 00:08:30",233757,11.25,199.2,1.75,0.396,24.12,111.2179,28.03,28.99,13.35,0,111.3,13.09,28.87,161.2
"2010-06-26 00:09:00",233758,10.92,196.8,1.812,0.401,24.13,111.2099,28,28.97,13.23,0,111.3,13.09,28.85,158.8
"2010-06-26 00:09:30",233759,10.64,198.9,2.867,0.4,24.06,111.1871,27.95,28.94,13.36,0,111.3,13.09,28.80,160.9
"2010-06-26 00:10:00",233760,11.54,197,1.568,0.383,24.16,111.1782,27.92,28.92,13.33,0,111.3,13.09,28.77,159.0
"2010-06-26 00:10:30",233761,11.87,196.3,1.587,0.257,24.22,111.1619,27.88,28.89,13.23,0,111.3,13.09,28.73,158.3
"2010-06-26 00:11:00",233762,11.3,193.2,1.245,0.235,24.15,111.1515,27.85,28.85,13.33,0,111.3,13.09,28.70,155.2
"2010-06-26 00:11:30",233763,11.36,192.1,1.307,0.817,24.13,111.1439,27.84,28.83,13.49,0,111.3,13.09,28.68,154.1
"2010-06-26 00:12:00",233764,11.5,193.3,3.899,0.425,24.1,111.1235,27.78,28.8,13.48,0,111.3,13.09,28.63,155.3
"2010-06-26 00:12:30",233765,10.92,197.5,3.975,0.302,24.02,111.1128,27.76,28.77,13.61,0,111.3,13.09,28.60,159.5
"2010-06-26 00:13:00",233766,11.3,194.1,2.874,1.04,24.07,111.1066,27.74,28.75,13.67,0,111.3,13.09,28.59,156.1
"2010-06-26 00:13:30",233767,12.27,202.3,6.913,0.651,24.22,111.0875,27.69,28.7,13.48,0,111.3,13.09,28.54,164.3
"2010-06-26 00:14:00",233768,12.19,213.2,3.799,0.944,24.31,111.0856,27.69,28.7,13.3,0,111.3,13.09,28.53,175.2
"2010-06-26 00:14:30",233769,11.88,219.6,4.125,0.567,24.27,111.0971,27.71,28.68,13.39,0,111.3,13.1,28.56,181.6
"2010-06-26 00:15:00",233770,10.98,225.7,5.759,0.886,23.96,111.1103,27.75,28.68,13.66,0,111.3,13.1,28.60,187.7
"2010-06-26 00:15:30",233771,10.23,237.2,9.65,0.909,23.7,111.0965,27.71,28.68,14.15,0,111.3,13.09,28.56,199.2
"2010-06-26 00:16:00",233772,9.98,242.8,6.319,0.75,23.53,111.0699,27.64,28.64,14.74,0,111.3,13.09,28.49,204.8
"2010-06-26 00:16:30",233773,9.61,240.7,5.056,1.139,23.54,111.0429,27.58,28.58,15.03,0,111.3,13.09,28.42,202.7
"2010-06-26 00:17:00",233774,10.88,236.2,5.814,0.681,23.74,111.0146,27.5,28.54,14.99,0,111.3,13.09,28.35,198.2
"2010-06-26 00:17:30",233775,11.62,240.5,6.183,1.116,23.45,111,27.46,28.5,14.98,0,111.3,13.09,28.31,202.5
"2010-06-26 00:18:00",233776,12.72,230.6,5.612,1.114,23.46,110.9489,27.33,28.43,15.48,0,111.3,13.09,28.18,192.6
"2010-06-26 00:18:30",233777,12.08,238,6.097,1.092,23.4,110.9155,27.25,28.34,15.62,0,111.3,13.09,28.09,200.0
"2010-06-26 00:19:00",233778,13.69,253.4,7.112,1.213,23.32,110.8959,27.2,28.29,15.87,0,111.3,13.09,28.04,215.4
"2010-06-26 00:19:30",233779,14.17,256.4,2.016,0.372,23.45,110.8746,27.14,28.23,15.82,0,111.3,13.09,27.99,218.4
"2010-06-26 00:20:00",233780,13.26,249.3,5.182,1.076,23.28,110.8497,27.08,28.19,16.04,0,111.3,13.09,27.92,211.3
"2010-06-26 00:20:30",233781,11.36,244.1,8.64,0.689,23.26,110.8276,27.02,28.13,16.21,0,111.3,13.09,27.87,206.1
"2010-06-26 00:21:00",233782,11.26,238.5,5.845,0.978,23.25,110.8021,26.96,28.05,16.36,0,111.3,13.1,27.80,200.5
"2010-06-26 00:21:30",233783,11.9,237.8,4.058,0.885,23.27,110.7814,26.9,28.01,16.47,0,111.3,13.1,27.75,199.8
"2010-06-26 00:22:00",233784,10.15,234.3,7.982,1.066,23.27,110.7549,26.83,27.95,16.63,0,111.3,13.1,27.68,196.3
"2010-06-26 00:22:30",233785,10.43,254.9,6.002,0.51,23.55,110.7265,26.76,27.88,16.61,0,111.3,13.1,27.61,216.9
"2010-06-26 00:23:00",233786,7.515,253.5,4.87,0.99,23.4,110.7148,26.73,27.81,16.71,0,111.3,13.1,27.58,215.5
"2010-06-26 00:23:30",233787,8.8,252.8,5.053,1.398,23.46,110.6888,26.66,27.74,16.88,0,111.3,13.1,27.51,214.8
"2010-06-26 00:24:00",233788,13.81,252.9,2.316,0.491,23.99,110.6794,26.64,27.71,17.06,0,111.3,13.1,27.49,214.9
"2010-06-26 00:24:30",233789,14.82,261.1,3.595,0.76,23.63,110.6609,26.59,27.66,17.14,0,111.3,13.1,27.44,223.1
"2010-06-26 00:25:00",233790,12.2,260.1,7.421,0.935,23.18,110.6544,26.58,27.62,17.4,0,111.3,13.1,27.42,222.1
"2010-06-26 00:25:30",233791,13.35,267.6,2.947,1.462,23.36,110.6353,26.53,27.56,17.26,0,111.3,13.1,27.37,229.6
"2010-06-26 00:26:00",233792,12.97,252.9,4.952,1.112,23.91,110.6313,26.52,27.5,16.94,0,111.3,13.1,27.36,214.9
"2010-06-26 00:26:30",233793,16.52,250.5,5.492,1.317,23.83,110.6334,26.52,27.49,16.49,0,111.3,13.1,27.37,212.5
"2010-06-26 00:27:00",233794,17.36,253.2,4.91,1.345,23.56,110.6345,26.53,27.49,16.25,0,111.3,13.1,27.37,215.2
"2010-06-26 00:27:30",233795,14.98,257,14.66,2.55,23.57,110.6481,26.56,27.49,16.2,0,111.3,13.1,27.40,219.0
"2010-06-26 00:28:00",233796,6.657,248.2,8.12,1.568,23.45,110.6548,26.58,27.5,16.1,0,111.3,13.1,27.42,210.2
"2010-06-26 00:28:30",233797,5.264,250.1,12.85,1.07,23.37,110.6506,26.57,27.5,16.02,0,111.3,13.1,27.41,212.1
"2010-06-26 00:29:00",233798,5.72,253,18.75,1.016,23.27,110.6466,26.56,27.49,16.12,0,111.3,13.1,27.40,215.0
"2010-06-26 00:29:30",233799,5.161,243.4,9.58,1.355,23.24,110.6456,26.55,27.47,16.21,0,111.3,13.1,27.40,205.4
"2010-06-26 00:30:00",233800,1.259,245.6,30.5,0.715,23.2,110.6405,26.54,27.47,16.17,0,111.3,13.1,27.39,207.6
"2010-06-26 00:30:30",233801,1.898,277.6,24.18,1.25,23.28,110.6418,26.54,27.44,16.05,0,111.3,13.1,27.39,239.6
"2010-06-26 00:31:00",233802,6.85,284.4,12.68,1.707,23.53,110.6446,26.55,27.45,15.78,0,111.3,13.1,27.40,246.4
"2010-06-26 00:31:30",233803,11.6,289.3,13.64,1.574,23.58,110.6517,26.57,27.44,15.66,0,111.3,13.11,27.41,251.3
"2010-06-26 00:32:00",233804,7.124,298.9,13.49,1.014,23.4,110.6593,26.59,27.46,15.67,0,111.3,13.11,27.43,260.9
"2010-06-26 00:32:30",233805,9.17,265.4,12.49,1.304,23.55,110.673,26.62,27.48,15.57,0,111.3,13.11,27.47,227.4
"2010-06-26 00:33:00",233806,10.21,233.9,11.31,1.298,23.51,110.677,26.63,27.49,15.56,0,111.3,13.1,27.48,195.9
"2010-06-26 00:33:30",233807,10.92,255.1,12.18,1.133,23.56,110.6795,26.64,27.5,15.55,0,111.3,13.1,27.49,217.1
"2010-06-26 00:34:00",233808,8.57,241.2,8.41,0.814,23.52,110.6857,26.66,27.53,15.68,0,111.3,13.1,27.50,203.2
"2010-06-26 00:34:30",233809,7.041,243.3,13.91,1.383,23.6,110.695,26.68,27.54,15.6,0,111.3,13.1,27.53,205.3
"2010-06-26 00:35:00",233810,7.907,232.4,7.387,0.797,23.48,110.7107,26.72,27.56,15.66,0,111.3,13.1,27.57,194.4
"2010-06-26 00:35:30",233811,8.29,233.3,7.579,0.701,23.43,110.7107,26.72,27.58,15.7,0,111.3,13.1,27.57,195.3
"2010-06-26 00:36:00",233812,7.549,256.5,10.95,0.715,23.31,110.7107,26.72,27.59,15.68,0,111.3,13.1,27.57,218.5
"2010-06-26 00:36:30",233813,6.014,241.2,14.59,0.786,23.33,110.7107,26.72,27.61,15.77,0,111.2,13.1,27.57,203.2
"2010-06-26 00:37:00",233814,7.161,238.6,8.26,1.076,23.33,110.7039,26.7,27.58,15.95,0,111.3,13.1,27.55,200.6
"2010-06-26 00:37:30",233815,8.25,232.4,4.417,0.539,23.24,110.6891,26.67,27.57,16.15,0,111.2,13.1,27.51,194.4
"2010-06-26 00:38:00",233816,7.179,242.8,12.09,0.9,23.27,110.6804,26.64,27.56,16.15,0,111.2,13.1,27.49,204.8
"2010-06-26 00:38:30",233817,7.468,271.3,6.024,0.917,23.19,110.677,26.63,27.55,16.34,0,111.2,13.11,27.48,233.3
"2010-06-26 00:39:00",233818,7.96,276.7,6.172,0.358,23.27,110.6736,26.63,27.54,16.26,0,111.2,13.11,27.47,238.7
"2010-06-26 00:39:30",233819,6.794,272.2,6.781,0.546,23.21,110.6591,26.59,27.53,16.2,0,111.2,13.11,27.43,234.2
"2010-06-26 00:40:00",233820,6.267,269.8,16.03,0.531,23.19,110.6489,26.56,27.51,16.38,0,111.2,13.11,27.41,231.8
"2010-06-26 00:40:30",233821,5.49,235.9,6.002,0.373,23.28,110.6439,26.55,27.51,16.07,0,111.2,13.11,27.39,197.9
"2010-06-26 00:41:00",233822,3.796,235.6,20.6,0.873,23.26,110.6436,26.55,27.48,16.04,0,111.2,13.11,27.39,197.6
"2010-06-26 00:41:30",233823,4.1,221.7,8.17,0.576,23.27,110.6449,26.55,27.47,16.09,0,111.2,13.11,27.40,183.7
"2010-06-26 00:42:00",233824,4.856,226.6,5.328,0.419,23.23,110.6461,26.56,27.47,16.1,0,111.2,13.11,27.40,188.6
"2010-06-26 00:42:30",233825,4.715,229,6.201,0.679,23.3,110.6477,26.56,27.46,16.09,0,111.2,13.11,27.40,191.0
"2010-06-26 00:43:00",233826,2.128,209.5,8.83,0.566,23.28,110.6461,26.56,27.46,16.09,0,111.2,13.12,27.40,171.5
"2010-06-26 00:43:30",233827,1.704,243.9,22.29,0.651,23.22,110.6433,26.55,27.47,16.15,0,111.2,13.12,27.39,205.9
"2010-06-26 00:44:00",233828,3.579,231.9,7.781,0.93,23.1,110.6307,26.52,27.44,16.35,0,111.2,13.12,27.36,193.9
"2010-06-26 00:44:30",233829,3.33,252,13.16,0.662,23,110.6119,26.47,27.41,16.91,0,111.2,13.12,27.31,214.0
"2010-06-26 00:45:00",233830,4.208,268.1,6.808,0.73,23.07,110.5878,26.41,27.37,16.87,0,111.2,13.12,27.25,230.1
"2010-06-26 00:45:30",233831,6.012,267.6,1.567,0.454,23.13,110.583,26.39,27.35,17.19,0,111.2,13.12,27.24,229.6
"2010-06-26 00:46:00",233832,6.461,270.7,2.071,0.253,23.26,110.5699,26.36,27.33,16.94,0,111.2,13.12,27.20,232.7
"2010-06-26 00:46:30",233833,6.196,272.7,1.579,0.313,23.16,110.5734,26.37,27.31,17.02,0,111.2,13.12,27.21,234.7
"2010-06-26 00:47:00",233834,6.201,276.4,4.438,0.659,23.22,110.5665,26.35,27.3,16.95,0,111.2,13.12,27.19,238.4
"2010-06-26 00:47:30",233835,8.7,262.7,6.701,2.195,23.46,110.582,26.39,27.29,16.46,0,111.2,13.12,27.23,224.7
"2010-06-26 00:48:00",233836,7.87,245,10.21,0.738,23.58,110.6223,26.49,27.34,15.94,0,111.2,13.12,27.34,207.0
"2010-06-26 00:48:30",233837,6.054,249,13.66,1.163,23.55,110.6397,26.54,27.36,15.95,0,111.2,13.12,27.38,211.0
"2010-06-26 00:49:00",233838,6.155,226.2,13.46,1.41,23.83,110.6776,26.64,27.4,15.22,0,111.2,13.12,27.48,188.2
"2010-06-26 00:49:30",233839,6.561,213.7,12.81,0.648,23.79,110.7229,26.75,27.46,15.02,0,111.2,13.11,27.60,175.7
"2010-06-26 00:50:00",233840,6.989,208.4,2.666,0.562,23.84,110.7408,26.8,27.53,14.86,0,111.2,13.11,27.64,170.4
"2010-06-26 00:50:30",233841,4.6,207.5,7.047,1.115,23.77,110.7659,26.86,27.58,14.69,0,111.2,13.11,27.71,169.5
"2010-06-26 00:51:00",233842,4.495,206,14.5,1.12,23.66,110.7895,26.92,27.64,14.76,0,111.2,13.11,27.77,168.0
"2010-06-26 00:51:30",233843,4.2,199.7,12.52,0.542,23.6,110.8057,26.97,27.69,14.93,0,111.2,13.11,27.81,161.7
"2010-06-26 00:52:00",233844,3.392,196.1,16.88,0.964,23.46,110.8057,26.97,27.71,15.29,0,111.2,13.11,27.81,158.1
"2010-06-26 00:52:30",233845,3.894,217.8,15.57,0.791,23.45,110.7909,26.93,27.74,15.4,0,111.2,13.11,27.77,179.8
"2010-06-26 00:53:00",233846,5.789,249.5,10.93,0.646,23.27,110.774,26.88,27.71,15.83,0,111.2,13.11,27.73,211.5
"2010-06-26 00:53:30",233847,6.503,248.1,4.44,0.647,23.03,110.7457,26.81,27.69,16.43,0,111.2,13.11,27.66,210.1
"2010-06-26 00:54:00",233848,6.391,255.9,4.25,0.192,22.95,110.6986,26.69,27.63,17.06,0,111.2,13.11,27.54,217.9
"2010-06-26 00:54:30",233849,6.442,261.8,2.663,0.181,22.93,110.655,26.58,27.57,17.32,0,111.2,13.11,27.42,223.8
"2010-06-26 00:55:00",233850,6.748,264,2.203,0.296,22.91,110.6185,26.48,27.51,17.61,0,111.2,13.12,27.33,226.0
"2010-06-26 00:55:30",233851,7.005,272.6,2.799,0.363,22.95,110.582,26.39,27.45,17.75,0,111.2,13.12,27.23,234.6
"2010-06-26 00:56:00",233852,6.595,265.4,4.149,0.527,22.99,110.5624,26.34,27.37,17.74,0,111.2,13.12,27.18,227.4
"2010-06-26 00:56:30",233853,8.13,266.8,3.304,0.699,23,110.5397,26.28,27.33,17.75,0,111.2,13.12,27.13,228.8
"2010-06-26 00:57:00",233854,9.06,270.9,2.577,0.313,23.08,110.5341,26.27,27.28,17.44,0,111.2,13.12,27.11,232.9
"2010-06-26 00:57:30",233855,8.56,273.6,1.679,0.684,23.18,110.5173,26.22,27.26,17.34,0,111.2,13.12,27.07,235.6
"2010-06-26 00:58:00",233856,9.06,269.4,1.559,0.458,23.21,110.5112,26.21,27.21,17.35,0,111.2,13.12,27.05,231.4
"2010-06-26 00:58:30",233857,9.77,270,1.731,0.297,23.04,110.5102,26.21,27.2,17.55,0,111.2,13.12,27.05,232.0
"2010-06-26 00:59:00",233858,9.16,267.6,4.282,0.674,23.21,110.5112,26.21,27.17,17.42,0,111.2,13.12,27.05,229.6
"2010-06-26 00:59:30",233859,9.63,268.2,2.804,0.404,23.29,110.5106,26.21,27.14,17.27,0,111.2,13.12,27.05,230.2
"2010-06-26 01:00:00",233860,8.08,254.2,7.451,0.603,23.54,110.5118,26.21,27.14,16.84,0,111.2,13.12,27.05,216.2
"2010-06-26 01:00:30",233861,8.29,269.3,2.896,0.653,23.41,110.5205,26.23,27.14,16.79,0,111.2,13.12,27.08,231.3
"2010-06-26 01:01:00",233862,8.43,267.1,6.163,0.661,23.5,110.5441,26.29,27.16,16.76,0,111.2,13.12,27.14,229.1
"2010-06-26 01:01:30",233863,6.698,261.1,3.391,0.819,23.42,110.5472,26.3,27.17,16.75,0,111.2,13.12,27.14,223.1
"2010-06-26 01:02:00",233864,5.927,260.4,4.918,0.316,23.4,110.5615,26.34,27.19,16.7,0,111.2,13.12,27.18,222.4
"2010-06-26 01:02:30",233865,5.955,263.8,1.821,0.373,23.36,110.5778,26.38,27.22,16.62,0,111.2,13.12,27.22,225.8
"2010-06-26 01:03:00",233866,6.717,265.5,4.8,1.211,23.39,110.582,26.39,27.22,16.61,0,111.2,13.12,27.23,227.5
"2010-06-26 01:03:30",233867,9.54,266.1,1.803,0.318,23.15,110.5843,26.4,27.25,17.08,0,111.2,13.12,27.24,228.1
"2010-06-26 01:04:00",233868,9.5,265,1.401,0.335,23.33,110.5795,26.38,27.26,16.95,0,111.2,13.12,27.23,227.0
"2010-06-26 01:04:30",233869,9.72,263.6,2.258,0.311,23.21,110.5795,26.38,27.26,17.07,0,111.2,13.12,27.23,225.6
"2010-06-26 01:05:00",233870,9.12,259.9,2.199,0.307,23.42,110.5795,26.38,27.26,16.93,0,111.2,13.12,27.23,221.9
"2010-06-26 01:05:30",233871,9.16,260.8,2.396,0.273,23.39,110.5795,26.38,27.27,16.91,0,111.2,13.12,27.23,222.8
"2010-06-26 01:06:00",233872,9.59,263,2.199,0.353,23.28,110.5795,26.38,27.27,17.03,0,111.2,13.12,27.23,225.0
"2010-06-26 01:06:30",233873,10.49,264.8,1.362,0.552,23.26,110.5792,26.38,27.27,17.06,0,111.2,13.12,27.23,226.8
"2010-06-26 01:07:00",233874,11.12,264,0.937,0.358,22.93,110.5714,26.36,27.27,17.73,0,111.2,13.12,27.21,226.0
"2010-06-26 01:07:30",233875,11.5,265.1,0.871,0.209,23.01,110.5503,26.31,27.26,17.82,0,111.2,13.12,27.15,227.1
"2010-06-26 01:08:00",233876,10.5,264.5,1.965,0.431,23.07,110.5455,26.3,27.23,17.8,0,111.2,13.12,27.14,226.5
"2010-06-26 01:08:30",233877,9.59,262.8,1.296,0.426,23.21,110.5256,26.25,27.19,17.67,0,111.2,13.12,27.09,224.8
"2010-06-26 01:09:00",233878,9.23,265.1,2.309,0.618,23.32,110.5183,26.23,27.2,17.38,0,111.2,13.12,27.07,227.1
"2010-06-26 01:09:30",233879,9.62,263,2.118,0.525,23.29,110.5138,26.22,27.17,17.53,0,111.2,13.12,27.06,225.0
"2010-06-26 01:10:00",233880,9.91,264.9,3.215,0.506,23.28,110.5121,26.21,27.18,17.42,0,111.2,13.12,27.05,226.9
"2010-06-26 01:10:30",233881,9.88,266.7,1.055,0.323,23.14,110.5121,26.21,27.19,17.84,0,111.2,13.12,27.05,228.7
"2010-06-26 01:11:00",233882,9.48,269.3,1.936,0.284,23.43,110.5121,26.21,27.15,17.24,0,111.2,13.12,27.05,231.3
"2010-06-26 01:11:30",233883,9.37,267,3.671,0.559,23.53,110.5121,26.21,27.16,16.96,0,111.2,13.12,27.05,229.0
"2010-06-26 01:12:00",233884,9.39,265.8,2.773,0.243,23.39,110.5163,26.22,27.17,17,0,111.2,13.13,27.06,227.8
"2010-06-26 01:12:30",233885,10.36,268.9,1.197,0.274,23.34,110.5203,26.23,27.17,17.09,0,111.2,13.13,27.08,230.9
"2010-06-26 01:13:00",233886,10.14,269.7,4.18,0.551,23.33,110.5265,26.25,27.19,17.02,0,111.2,13.13,27.09,231.7
"2010-06-26 01:13:30",233887,8.69,270.9,4.374,0.581,23.08,110.5239,26.24,27.18,17.63,0,111.2,13.13,27.08,232.9
"2010-06-26 01:14:00",233888,8.82,263.6,4.411,0.954,23.59,110.5262,26.25,27.18,16.88,0,111.2,13.13,27.09,225.6
"2010-06-26 01:14:30",233889,7.629,254.5,4.424,0.489,23.86,110.5467,26.3,27.2,16.08,0,111.2,13.13,27.14,216.5
"2010-06-26 01:15:00",233890,7.685,255.5,2.61,1.092,23.67,110.575,26.37,27.23,16.09,0,111.2,13.13,27.22,217.5
"2010-06-26 01:15:30",233891,9.09,260.6,5.847,0.469,23.57,110.5801,26.39,27.25,16.31,0,111.2,13.13,27.23,222.6
"2010-06-26 01:16:00",233892,9.16,264.7,3.303,0.381,23.47,110.595,26.42,27.28,16.36,0,111.2,13.13,27.27,226.7
"2010-06-26 01:16:30",233893,8.69,262.5,4.547,0.478,23.46,110.6115,26.47,27.32,16.38,0,111.2,13.13,27.31,224.5
"2010-06-26 01:17:00",233894,7.516,257.3,2.383,0.203,23.54,110.6135,26.47,27.34,16.34,0,111.2,13.13,27.32,219.3
"2010-06-26 01:17:30",233895,7.278,251.3,4.761,0.57,23.82,110.631,26.52,27.36,15.65,0,111.2,13.13,27.36,213.3
"2010-06-26 01:18:00",233896,8.75,253,3.759,0.281,23.82,110.6655,26.6,27.41,15.49,0,111.2,13.13,27.45,215.0
"2010-06-26 01:18:30",233897,8.24,250.1,5.395,0.519,23.76,110.6843,26.65,27.46,15.49,0,111.2,13.13,27.50,212.1
"2010-06-26 01:19:00",233898,7.537,252.4,1.723,0.303,23.56,110.6917,26.67,27.49,15.72,0,111.2,13.13,27.52,214.4
"2010-06-26 01:19:30",233899,7.471,249.4,4.484,0.65,23.61,110.6961,26.68,27.51,15.77,0,111.2,13.13,27.53,211.4
"2010-06-26 01:20:00",233900,7.506,249.7,5.24,0.459,23.75,110.7232,26.75,27.54,15.36,0,111.2,13.13,27.60,211.7
"2010-06-26 01:20:30",233901,7.709,249.8,3.998,0.889,23.77,110.7267,26.76,27.57,15.25,0,111.2,13.13,27.61,211.8
"2010-06-26 01:21:00",233902,4.72,249.4,6.832,0.669,23.59,110.736,26.79,27.61,15.32,0,111.2,13.13,27.63,211.4
"2010-06-26 01:21:30",233903,5.545,236.8,4.313,0.445,23.68,110.7594,26.85,27.65,15.24,0,111.2,13.13,27.69,198.8
"2010-06-26 01:22:00",233904,6.337,242,6.952,0.65,23.62,110.7629,26.86,27.66,15.23,0,111.2,13.13,27.70,204.0
"2010-06-26 01:22:30",233905,7.267,244.7,5.559,0.521,23.6,110.7666,26.86,27.68,15.38,0,111.2,13.13,27.71,206.7
"2010-06-26 01:23:00",233906,7.579,246.1,3.205,0.356,23.51,110.7704,26.87,27.69,15.6,0,111.2,13.13,27.72,208.1
"2010-06-26 01:23:30",233907,7.075,244.6,2.783,0.276,23.5,110.7697,26.87,27.7,15.63,0,111.2,13.13,27.72,206.6
"2010-06-26 01:24:00",233908,7.861,250.8,1.699,0.195,23.49,110.7657,26.86,27.71,15.72,0,111.2,13.13,27.71,212.8
"2010-06-26 01:24:30",233909,7.934,248.9,3.494,0.341,23.29,110.7428,26.8,27.69,16.04,0,111.2,13.13,27.65,210.9
"2010-06-26 01:25:00",233910,7.807,244.3,2.053,0.283,23.31,110.7355,26.78,27.68,16.22,0,111.2,13.13,27.63,206.3
"2010-06-26 01:25:30",233911,8.1,242,3.327,0.327,23.33,110.7174,26.74,27.65,16.2,0,111.2,13.13,27.58,204.0
"2010-06-26 01:26:00",233912,9.45,242.6,2.108,0.627,23.26,110.7036,26.7,27.64,16.36,0,111.2,13.13,27.55,204.6
"2010-06-26 01:26:30",233913,9.46,246.9,2.946,0.339,23.38,110.6999,26.69,27.6,16.34,0,111.2,13.13,27.54,208.9
"2010-06-26 01:27:00",233914,9.19,244.8,3.199,0.327,23.29,110.68,26.64,27.59,16.4,0,111.2,13.13,27.49,206.8
"2010-06-26 01:27:30",233915,8.84,242.8,3.752,0.505,23.33,110.6721,26.62,27.56,16.45,0,111.2,13.13,27.47,204.8
"2010-06-26 01:28:00",233916,9.67,242.4,1.62,0.205,23.38,110.669,26.61,27.54,16.4,0,111.2,13.13,27.46,204.4
"2010-06-26 01:28:30",233917,10.05,242.4,1.171,0.16,23.45,110.6581,26.59,27.52,16.32,0,111.2,13.13,27.43,204.4
"2010-06-26 01:29:00",233918,9.68,241.8,1.435,0.401,23.54,110.6529,26.57,27.51,16.19,0,111.2,13.13,27.42,203.8
"2010-06-26 01:29:30",233919,9.52,248,2.337,0.411,23.5,110.6501,26.57,27.5,16.21,0,111.2,13.13,27.41,210.0
"2010-06-26 01:30:00",233920,10.05,249,2.051,0.193,23.5,110.6496,26.56,27.49,16.18,0,111.2,13.13,27.41,211.0
"2010-06-26 01:30:30",233921,9.14,245.5,1.435,0.281,23.41,110.6464,26.56,27.48,16.28,0,111.2,13.14,27.40,207.5
"2010-06-26 01:31:00",233922,9.5,247,1.475,0.23,23.42,110.6417,26.54,27.48,16.35,0,111.2,13.14,27.39,209.0
"2010-06-26 01:31:30",233923,9.18,248.8,1.155,0.236,23.53,110.6409,26.54,27.46,16.24,0,111.2,13.14,27.39,210.8
"2010-06-26 01:32:00",233924,9.12,247.5,1.067,0.284,23.52,110.6412,26.54,27.46,16.24,0,111.2,13.14,27.39,209.5
"2010-06-26 01:32:30",233925,9.54,248.8,1.265,0.207,23.41,110.6412,26.54,27.45,16.35,0,111.2,13.14,27.39,210.8
"2010-06-26 01:33:00",233926,9.94,248.6,1.005,0.174,23.48,110.6412,26.54,27.45,16.29,0,111.2,13.14,27.39,210.6
"2010-06-26 01:33:30",233927,10.09,250.3,1.425,0.239,23.36,110.6412,26.54,27.45,16.53,0,111.2,13.14,27.39,212.3
"2010-06-26 01:34:00",233928,9.94,255.1,1.394,0.186,23.34,110.6412,26.54,27.43,16.57,0,111.2,13.14,27.39,217.1
"2010-06-26 01:34:30",233929,9.46,255.2,2.166,0.484,23.41,110.6378,26.53,27.44,16.64,0,111.2,13.14,27.38,217.2
"2010-06-26 01:35:00",233930,9.35,252.2,1.447,0.426,23.42,110.6193,26.49,27.43,16.53,0,111.2,13.14,27.33,214.2
"2010-06-26 01:35:30",233931,10.89,248.8,2.375,0.443,23.37,110.6151,26.48,27.41,16.64,0,111.2,13.14,27.32,210.8
"2010-06-26 01:36:00",233932,10.5,247.5,1.007,0.348,23.44,110.6106,26.46,27.4,16.54,0,111.2,13.14,27.31,209.5
"2010-06-26 01:36:30",233933,10.33,247.2,0.722,0.119,23.41,110.6092,26.46,27.38,16.55,0,111.2,13.14,27.30,209.2
"2010-06-26 01:37:00",233934,10.07,245.4,1.061,0.142,23.46,110.6078,26.46,27.39,16.47,0,111.2,13.14,27.30,207.4
"2010-06-26 01:37:30",233935,9.77,245.6,1.033,0.255,23.41,110.6075,26.46,27.39,16.46,0,111.2,13.14,27.30,207.6
"2010-06-26 01:38:00",233936,9.85,247.1,1.361,0.297,23.35,110.6075,26.46,27.39,16.56,0,111.2,13.14,27.30,209.1
"2010-06-26 01:38:30",233937,10.46,245.6,1.26,0.218,23.42,110.6075,26.46,27.39,16.59,0,111.2,13.14,27.30,207.6
"2010-06-26 01:39:00",233938,10.76,244.9,1.139,0.174,23.39,110.6081,26.46,27.38,16.59,0,111.2,13.14,27.30,206.9
"2010-06-26 01:39:30",233939,10.87,247.4,1.824,0.29,23.3,110.6084,26.46,27.38,16.75,0,111.2,13.14,27.30,209.4
"2010-06-26 01:40:00",233940,10.2,251.9,0.699,0.347,23.41,110.609,26.46,27.37,16.7,0,111.2,13.14,27.30,213.9
"2010-06-26 01:40:30",233941,9.98,252.5,1.526,0.303,23.43,110.6077,26.46,27.36,16.63,0,111.2,13.14,27.30,214.5
"2010-06-26 01:41:00",233942,10.16,253.3,1.502,0.212,23.41,110.6054,26.45,27.36,16.69,0,111.2,13.14,27.29,215.3
"2010-06-26 01:41:30",233943,10.26,254.1,1.168,0.139,23.32,110.6044,26.45,27.36,16.81,0,111.2,13.13,27.29,216.1
"2010-06-26 01:42:00",233944,10.63,256.2,1.609,0.214,23.41,110.5884,26.41,27.34,16.88,0,111.2,13.13,27.25,218.2
"2010-06-26 01:42:30",233945,11.33,258.4,2.106,0.577,23.38,110.5794,26.38,27.33,17.03,0,111.2,13.13,27.23,220.4
"2010-06-26 01:43:00",233946,12.11,261.3,1.154,0.31,23.51,110.5769,26.38,27.31,16.86,0,111.2,13.13,27.22,223.3
"2010-06-26 01:43:30",233947,11.61,257.6,1.698,0.257,23.59,110.5806,26.39,27.31,16.76,0,111.2,13.13,27.23,219.6
"2010-06-26 01:44:00",233948,10.58,252.7,1.946,0.428,23.48,110.5781,26.38,27.3,16.71,0,111.2,13.13,27.22,214.7
"2010-06-26 01:44:30",233949,11.69,248,1.228,0.157,23.45,110.5806,26.39,27.28,16.6,0,111.2,13.13,27.23,210.0
"2010-06-26 01:45:00",233950,11.42,249.1,0.758,0.213,23.46,110.579,26.38,27.3,16.52,0,111.2,13.13,27.23,211.1
"2010-06-26 01:45:30",233951,11.35,244.4,2.809,0.179,23.47,110.582,26.39,27.3,16.47,0,111.2,13.13,27.23,206.4
"2010-06-26 01:46:00",233952,10.97,243.1,1.741,0.155,23.38,110.5811,26.39,27.3,16.47,0,111.2,13.13,27.23,205.1
"2010-06-26 01:46:30",233953,11.12,241.8,1.014,0.294,23.45,110.581,26.39,27.29,16.41,0,111.2,13.14,27.23,203.8
"2010-06-26 01:47:00",233954,11.25,239.8,1.27,0.372,23.38,110.5839,26.4,27.31,16.48,0,111.2,13.14,27.24,201.8
"2010-06-26 01:47:30",233955,10.78,238.7,1.458,0.318,23.3,110.584,26.4,27.31,16.57,0,111.2,13.14,27.24,200.7
"2010-06-26 01:48:00",233956,11.52,241,0.692,0.216,23.2,110.5827,26.39,27.31,16.75,0,111.2,13.14,27.24,203.0